owner,sensor,date,latitude,longitude,vertical_datum,sea_water_practical_salinity,qcFlag 
TABS,ioos:station:wmo:42048:1,2013-08-01T00:00:00Z,27.9396,-96.8429,2.0,36.4709,11111222 
TABS,ioos:station:wmo:42048:1,2013-08-01T00:30:00Z,27.9396,-96.8429,2.0,36.4754,11111222 
TABS,ioos:station:wmo:42048:1,2013-08-01T01:00:00Z,27.9396,-96.8429,2.0,36.4739,11111222 
TABS,ioos:station:wmo:42048:1,2013-08-01T01:30:00Z,27.9396,-96.8429,2.0,36.4751,11111222 
TABS,ioos:station:wmo:42048:1,2013-08-01T02:00:00Z,27.9396,-96.8429,2.0,36.4754,11111222 
TABS,ioos:station:wmo:42048:1,2013-08-01T02:30:00Z,27.9396,-96.8429,2.0,36.4749,11111222 
TABS,ioos:station:wmo:42048:1,2013-08-01T03:00:00Z,27.9396,-96.8429,2.0,36.4742,11111222 
TABS,ioos:station:wmo:42048:1,2013-08-01T03:30:00Z,27.9396,-96.8429,2.0,36.474,11111222 
TABS,ioos:station:wmo:42048:1,2013-08-01T04:00:00Z,27.9396,-96.8429,2.0,36.4748,11111222 
TABS,ioos:station:wmo:42048:1,2013-08-01T04:30:00Z,27.9396,-96.8429,2.0,36.4722,11111222 
TABS,ioos:station:wmo:42048:1,2013-08-01T05:00:00Z,27.9396,-96.8429,2.0,36.473,11111222 
TABS,ioos:station:wmo:42048:1,2013-08-01T05:30:00Z,27.9396,-96.8429,2.0,36.4729,11111222 
TABS,ioos:station:wmo:42048:1,2013-08-01T06:00:00Z,27.9396,-96.8429,2.0,36.4734,11111222 
TABS,ioos:station:wmo:42048:1,2013-08-01T06:30:00Z,27.9396,-96.8429,2.0,36.4735,11111222 
TABS,ioos:station:wmo:42048:1,2013-08-01T07:00:00Z,27.9396,-96.8429,2.0,36.4757,11111222 
TABS,ioos:station:wmo:42048:1,2013-08-01T07:30:00Z,27.9396,-96.8429,2.0,36.4734,11111222 
TABS,ioos:station:wmo:42048:1,2013-08-01T08:00:00Z,27.9396,-96.8429,2.0,36.4729,11111222 
TABS,ioos:station:wmo:42048:1,2013-08-01T08:30:00Z,27.9396,-96.8429,2.0,36.4718,11111222 
TABS,ioos:station:wmo:42048:1,2013-08-01T09:00:00Z,27.9396,-96.8429,2.0,36.4722,11111222 
TABS,ioos:station:wmo:42048:1,2013-08-01T09:30:00Z,27.9396,-96.8429,2.0,36.4726,11111222 
TABS,ioos:station:wmo:42048:1,2013-08-01T10:00:00Z,27.9396,-96.8429,2.0,36.4733,11111222 
TABS,ioos:station:wmo:42048:1,2013-08-01T10:30:00Z,27.9396,-96.8429,2.0,36.4726,11111222 
TABS,ioos:station:wmo:42048:1,2013-08-01T12:00:00Z,27.9396,-96.8429,2.0,36.4735,11111222 
TABS,ioos:station:wmo:42048:1,2013-08-01T12:30:00Z,27.9396,-96.8429,2.0,36.4773,11111222 
TABS,ioos:station:wmo:42048:1,2013-08-01T13:00:00Z,27.9396,-96.8429,2.0,36.487,11111222 
TABS,ioos:station:wmo:42048:1,2013-08-01T13:30:00Z,27.9396,-96.8429,2.0,36.4928,11111222 
TABS,ioos:station:wmo:42048:1,2013-08-01T14:00:00Z,27.9396,-96.8429,2.0,36.5018,11111222 
TABS,ioos:station:wmo:42048:1,2013-08-01T14:30:00Z,27.9396,-96.8429,2.0,36.5101,11111222 
TABS,ioos:station:wmo:42048:1,2013-08-01T15:00:00Z,27.9396,-96.8429,2.0,36.5097,11111222 
TABS,ioos:station:wmo:42048:1,2013-08-01T15:30:00Z,27.9396,-96.8429,2.0,36.5234,11111222 
TABS,ioos:station:wmo:42048:1,2013-08-01T16:00:00Z,27.9396,-96.8429,2.0,36.5098,11111222 
TABS,ioos:station:wmo:42048:1,2013-08-01T16:30:00Z,27.9396,-96.8429,2.0,36.5197,11111222 
TABS,ioos:station:wmo:42048:1,2013-08-01T17:00:00Z,27.9396,-96.8429,2.0,36.4973,11111222 
TABS,ioos:station:wmo:42048:1,2013-08-01T17:30:00Z,27.9396,-96.8429,2.0,36.5031,11111222 
TABS,ioos:station:wmo:42048:1,2013-08-01T18:00:00Z,27.9396,-96.8429,2.0,36.5015,11111222 
TABS,ioos:station:wmo:42048:1,2013-08-01T18:30:00Z,27.9396,-96.8429,2.0,36.5066,11111222 
TABS,ioos:station:wmo:42048:1,2013-08-01T19:00:00Z,27.9396,-96.8429,2.0,36.5133,11111222 
TABS,ioos:station:wmo:42048:1,2013-08-01T19:30:00Z,27.9396,-96.8429,2.0,36.5141,11111222 
TABS,ioos:station:wmo:42048:1,2013-08-01T20:00:00Z,27.9396,-96.8429,2.0,36.5025,11111222 
TABS,ioos:station:wmo:42048:1,2013-08-01T20:30:00Z,27.9396,-96.8429,2.0,36.4458,11111222 
TABS,ioos:station:wmo:42048:1,2013-08-01T21:00:00Z,27.9396,-96.8429,2.0,36.4799,11111222 
TABS,ioos:station:wmo:42048:1,2013-08-01T21:30:00Z,27.9396,-96.8429,2.0,36.501,11111222 
TABS,ioos:station:wmo:42048:1,2013-08-01T22:00:00Z,27.9396,-96.8429,2.0,36.5135,11111222 
TABS,ioos:station:wmo:42048:1,2013-08-01T22:30:00Z,27.9396,-96.8429,2.0,36.5173,11111222 
TABS,ioos:station:wmo:42048:1,2013-08-01T23:00:00Z,27.9396,-96.8429,2.0,36.5154,11111222 
TABS,ioos:station:wmo:42048:1,2013-08-01T23:30:00Z,27.9396,-96.8429,2.0,36.51,11111222 
TABS,ioos:station:wmo:42048:1,2013-08-02T00:00:00Z,27.9396,-96.8429,2.0,36.5145,11111222 
TABS,ioos:station:wmo:42048:1,2013-08-02T00:30:00Z,27.9396,-96.8429,2.0,36.5097,11111222 
TABS,ioos:station:wmo:42048:1,2013-08-02T01:00:00Z,27.9396,-96.8429,2.0,36.5096,11111222 
TABS,ioos:station:wmo:42048:1,2013-08-02T01:30:00Z,27.9396,-96.8429,2.0,36.5078,11111222 
TABS,ioos:station:wmo:42048:1,2013-08-02T02:00:00Z,27.9396,-96.8429,2.0,36.5033,11111222 
TABS,ioos:station:wmo:42048:1,2013-08-02T02:30:00Z,27.9396,-96.8429,2.0,36.5009,11111222 
TABS,ioos:station:wmo:42048:1,2013-08-02T03:00:00Z,27.9396,-96.8429,2.0,36.4978,11111222 
TABS,ioos:station:wmo:42048:1,2013-08-02T03:30:00Z,27.9396,-96.8429,2.0,36.497,11111222 
TABS,ioos:station:wmo:42048:1,2013-08-02T04:00:00Z,27.9396,-96.8429,2.0,36.4963,11111222 
TABS,ioos:station:wmo:42048:1,2013-08-02T04:30:00Z,27.9396,-96.8429,2.0,36.4955,11111222 
TABS,ioos:station:wmo:42048:1,2013-08-02T05:00:00Z,27.9396,-96.8429,2.0,36.4916,11111222 
TABS,ioos:station:wmo:42048:1,2013-08-02T05:30:00Z,27.9396,-96.8429,2.0,36.492,11111222 
TABS,ioos:station:wmo:42048:1,2013-08-02T06:00:00Z,27.9396,-96.8429,2.0,36.49,11111222 
TABS,ioos:station:wmo:42048:1,2013-08-02T06:30:00Z,27.9396,-96.8429,2.0,36.4858,11111222 
TABS,ioos:station:wmo:42048:1,2013-08-02T07:00:00Z,27.9396,-96.8429,2.0,36.4854,11111222 
TABS,ioos:station:wmo:42048:1,2013-08-02T07:30:00Z,27.9396,-96.8429,2.0,36.4847,11111222 
TABS,ioos:station:wmo:42048:1,2013-08-02T08:00:00Z,27.9396,-96.8429,2.0,36.4835,11111222 
TABS,ioos:station:wmo:42048:1,2013-08-02T08:30:00Z,27.9396,-96.8429,2.0,36.4827,11111222 
TABS,ioos:station:wmo:42048:1,2013-08-02T09:00:00Z,27.9396,-96.8429,2.0,36.4819,11111222 
TABS,ioos:station:wmo:42048:1,2013-08-02T09:30:00Z,27.9396,-96.8429,2.0,36.4797,11111222 
TABS,ioos:station:wmo:42048:1,2013-08-02T10:00:00Z,27.9396,-96.8429,2.0,36.4787,11111222 
TABS,ioos:station:wmo:42048:1,2013-08-02T10:30:00Z,27.9396,-96.8429,2.0,36.4781,11111222 
TABS,ioos:station:wmo:42048:1,2013-08-02T11:00:00Z,27.9396,-96.8429,2.0,36.4795,11111222 
TABS,ioos:station:wmo:42048:1,2013-08-02T11:30:00Z,27.9396,-96.8429,2.0,36.4789,11111222 
TABS,ioos:station:wmo:42048:1,2013-08-02T12:00:00Z,27.9396,-96.8429,2.0,36.4774,11111222 
TABS,ioos:station:wmo:42048:1,2013-08-02T12:30:00Z,27.9396,-96.8429,2.0,36.48,11111222 
TABS,ioos:station:wmo:42048:1,2013-08-02T13:00:00Z,27.9396,-96.8429,2.0,36.4796,11111222 
TABS,ioos:station:wmo:42048:1,2013-08-02T13:30:00Z,27.9396,-96.8429,2.0,36.481,11111222 
TABS,ioos:station:wmo:42048:1,2013-08-02T14:00:00Z,27.9396,-96.8429,2.0,36.481,11111222 
TABS,ioos:station:wmo:42048:1,2013-08-02T14:30:00Z,27.9396,-96.8429,2.0,36.484,11111222 
TABS,ioos:station:wmo:42048:1,2013-08-02T15:00:00Z,27.9396,-96.8429,2.0,36.4815,11111222 
TABS,ioos:station:wmo:42048:1,2013-08-02T15:30:00Z,27.9396,-96.8429,2.0,36.4827,11111222 
TABS,ioos:station:wmo:42048:1,2013-08-02T16:00:00Z,27.9396,-96.8429,2.0,36.5155,11111222 
TABS,ioos:station:wmo:42048:1,2013-08-02T16:30:00Z,27.9396,-96.8429,2.0,36.5573,11111222 
TABS,ioos:station:wmo:42048:1,2013-08-02T17:00:00Z,27.9396,-96.8429,2.0,36.5711,11111222 
TABS,ioos:station:wmo:42048:1,2013-08-02T17:30:00Z,27.9396,-96.8429,2.0,36.5862,11111222 
TABS,ioos:station:wmo:42048:1,2013-08-02T18:00:00Z,27.9396,-96.8429,2.0,36.5774,11111222 
TABS,ioos:station:wmo:42048:1,2013-08-02T18:30:00Z,27.9396,-96.8429,2.0,36.6124,11111222 
TABS,ioos:station:wmo:42048:1,2013-08-02T19:00:00Z,27.9396,-96.8429,2.0,36.5679,11111222 
TABS,ioos:station:wmo:42048:1,2013-08-02T19:30:00Z,27.9396,-96.8429,2.0,36.5536,11111222 
TABS,ioos:station:wmo:42048:1,2013-08-02T20:00:00Z,27.9396,-96.8429,2.0,36.5835,11111222 
TABS,ioos:station:wmo:42048:1,2013-08-02T20:30:00Z,27.9396,-96.8429,2.0,36.5968,11111222 
TABS,ioos:station:wmo:42048:1,2013-08-02T21:00:00Z,27.9396,-96.8429,2.0,36.5976,11111222 
TABS,ioos:station:wmo:42048:1,2013-08-02T21:30:00Z,27.9396,-96.8429,2.0,36.5894,11111222 
TABS,ioos:station:wmo:42048:1,2013-08-02T22:00:00Z,27.9396,-96.8429,2.0,36.602,11111222 
TABS,ioos:station:wmo:42048:1,2013-08-02T22:30:00Z,27.9396,-96.8429,2.0,36.5998,11111222 
TABS,ioos:station:wmo:42048:1,2013-08-02T23:00:00Z,27.9396,-96.8429,2.0,36.6089,11111222 
TABS,ioos:station:wmo:42048:1,2013-08-02T23:30:00Z,27.9396,-96.8429,2.0,36.598,11111222 
TABS,ioos:station:wmo:42048:1,2013-08-03T00:00:00Z,27.9396,-96.8429,2.0,36.5982,11111222 
TABS,ioos:station:wmo:42048:1,2013-08-03T00:30:00Z,27.9396,-96.8429,2.0,36.5961,11111222 
TABS,ioos:station:wmo:42048:1,2013-08-03T01:00:00Z,27.9396,-96.8429,2.0,36.5937,11111222 
TABS,ioos:station:wmo:42048:1,2013-08-03T01:30:00Z,27.9396,-96.8429,2.0,36.5908,11111222 
TABS,ioos:station:wmo:42048:1,2013-08-03T02:00:00Z,27.9396,-96.8429,2.0,36.5918,11111222 
TABS,ioos:station:wmo:42048:1,2013-08-03T02:30:00Z,27.9396,-96.8429,2.0,36.5863,11111222 
TABS,ioos:station:wmo:42048:1,2013-08-03T03:00:00Z,27.9396,-96.8429,2.0,36.5857,11111222 
TABS,ioos:station:wmo:42048:1,2013-08-03T03:30:00Z,27.9396,-96.8429,2.0,36.58,11111222 
TABS,ioos:station:wmo:42048:1,2013-08-03T04:00:00Z,27.9396,-96.8429,2.0,36.5762,11111222 
TABS,ioos:station:wmo:42048:1,2013-08-03T04:30:00Z,27.9396,-96.8429,2.0,36.5697,11111222 
TABS,ioos:station:wmo:42048:1,2013-08-03T05:00:00Z,27.9396,-96.8429,2.0,36.5633,11111222 
TABS,ioos:station:wmo:42048:1,2013-08-03T05:30:00Z,27.9396,-96.8429,2.0,36.5565,11111222 
TABS,ioos:station:wmo:42048:1,2013-08-03T06:00:00Z,27.9396,-96.8429,2.0,36.5443,11111222 
TABS,ioos:station:wmo:42048:1,2013-08-03T06:30:00Z,27.9396,-96.8429,2.0,36.528,11111222 
TABS,ioos:station:wmo:42048:1,2013-08-03T07:00:00Z,27.9396,-96.8429,2.0,36.5222,11111222 
TABS,ioos:station:wmo:42048:1,2013-08-03T07:30:00Z,27.9396,-96.8429,2.0,36.521,11111222 
TABS,ioos:station:wmo:42048:1,2013-08-03T08:00:00Z,27.9396,-96.8429,2.0,36.5087,11111222 
TABS,ioos:station:wmo:42048:1,2013-08-03T08:30:00Z,27.9396,-96.8429,2.0,36.5075,11111222 
TABS,ioos:station:wmo:42048:1,2013-08-03T09:00:00Z,27.9396,-96.8429,2.0,36.5051,11111222 
TABS,ioos:station:wmo:42048:1,2013-08-03T09:30:00Z,27.9396,-96.8429,2.0,36.5127,11111222 
TABS,ioos:station:wmo:42048:1,2013-08-03T10:00:00Z,27.9396,-96.8429,2.0,36.5116,11111222 
TABS,ioos:station:wmo:42048:1,2013-08-03T10:30:00Z,27.9396,-96.8429,2.0,36.5117,11111222 
TABS,ioos:station:wmo:42048:1,2013-08-03T11:00:00Z,27.9396,-96.8429,2.0,36.5167,11111222 
TABS,ioos:station:wmo:42048:1,2013-08-03T11:30:00Z,27.9396,-96.8429,2.0,36.5274,11111222 
TABS,ioos:station:wmo:42048:1,2013-08-03T12:00:00Z,27.9396,-96.8429,2.0,36.5278,11111222 
TABS,ioos:station:wmo:42048:1,2013-08-03T12:30:00Z,27.9396,-96.8429,2.0,36.5331,11111222 
TABS,ioos:station:wmo:42048:1,2013-08-03T13:00:00Z,27.9396,-96.8429,2.0,36.5298,11111222 
TABS,ioos:station:wmo:42048:1,2013-08-03T13:30:00Z,27.9396,-96.8429,2.0,36.5393,11111222 
TABS,ioos:station:wmo:42048:1,2013-08-03T14:00:00Z,27.9396,-96.8429,2.0,36.5425,11111222 
TABS,ioos:station:wmo:42048:1,2013-08-03T14:30:00Z,27.9396,-96.8429,2.0,36.5435,11111222 
TABS,ioos:station:wmo:42048:1,2013-08-03T15:00:00Z,27.9396,-96.8429,2.0,36.5431,11111222 
TABS,ioos:station:wmo:42048:1,2013-08-03T15:30:00Z,27.9396,-96.8429,2.0,36.5396,11111222 
TABS,ioos:station:wmo:42048:1,2013-08-03T16:00:00Z,27.9396,-96.8429,2.0,36.55,11111222 
TABS,ioos:station:wmo:42048:1,2013-08-03T16:30:00Z,27.9396,-96.8429,2.0,36.5448,11111222 
TABS,ioos:station:wmo:42048:1,2013-08-03T17:00:00Z,27.9396,-96.8429,2.0,36.5445,11111222 
TABS,ioos:station:wmo:42048:1,2013-08-03T17:30:00Z,27.9396,-96.8429,2.0,36.5382,11111222 
TABS,ioos:station:wmo:42048:1,2013-08-03T18:00:00Z,27.9396,-96.8429,2.0,36.5405,11111222 
TABS,ioos:station:wmo:42048:1,2013-08-03T18:30:00Z,27.9396,-96.8429,2.0,36.5348,11111222 
TABS,ioos:station:wmo:42048:1,2013-08-03T22:00:00Z,27.9396,-96.8429,2.0,36.5389,11111222 
TABS,ioos:station:wmo:42048:1,2013-08-03T22:30:00Z,27.9396,-96.8429,2.0,36.5428,11111222 
TABS,ioos:station:wmo:42048:1,2013-08-03T23:00:00Z,27.9396,-96.8429,2.0,36.5506,11111222 
TABS,ioos:station:wmo:42048:1,2013-08-03T23:30:00Z,27.9396,-96.8429,2.0,36.5501,11111222 
TABS,ioos:station:wmo:42048:1,2013-08-04T00:00:00Z,27.9396,-96.8429,2.0,36.55,11111222 
TABS,ioos:station:wmo:42048:1,2013-08-04T00:30:00Z,27.9396,-96.8429,2.0,36.5501,11111222 
TABS,ioos:station:wmo:42048:1,2013-08-04T01:00:00Z,27.9396,-96.8429,2.0,36.5533,11111222 
TABS,ioos:station:wmo:42048:1,2013-08-04T01:30:00Z,27.9396,-96.8429,2.0,36.5508,11111222 
TABS,ioos:station:wmo:42048:1,2013-08-04T02:00:00Z,27.9396,-96.8429,2.0,36.5501,11111222 
TABS,ioos:station:wmo:42048:1,2013-08-04T02:30:00Z,27.9396,-96.8429,2.0,36.5498,11111222 
TABS,ioos:station:wmo:42048:1,2013-08-04T03:00:00Z,27.9396,-96.8429,2.0,36.5402,11111222 
TABS,ioos:station:wmo:42048:1,2013-08-04T03:30:00Z,27.9396,-96.8429,2.0,36.5379,11111222 
TABS,ioos:station:wmo:42048:1,2013-08-04T04:00:00Z,27.9396,-96.8429,2.0,36.5328,11111222 
TABS,ioos:station:wmo:42048:1,2013-08-04T04:30:00Z,27.9396,-96.8429,2.0,36.5332,11111222 
TABS,ioos:station:wmo:42048:1,2013-08-04T05:00:00Z,27.9396,-96.8429,2.0,36.532,11111222 
TABS,ioos:station:wmo:42048:1,2013-08-04T05:30:00Z,27.9396,-96.8429,2.0,36.5311,11111222 
TABS,ioos:station:wmo:42048:1,2013-08-04T06:00:00Z,27.9396,-96.8429,2.0,36.5327,11111222 
TABS,ioos:station:wmo:42048:1,2013-08-04T06:30:00Z,27.9396,-96.8429,2.0,36.5345,11111222 
TABS,ioos:station:wmo:42048:1,2013-08-04T07:00:00Z,27.9396,-96.8429,2.0,36.5343,11111222 
TABS,ioos:station:wmo:42048:1,2013-08-04T07:30:00Z,27.9396,-96.8429,2.0,36.5354,11111222 
TABS,ioos:station:wmo:42048:1,2013-08-04T08:00:00Z,27.9396,-96.8429,2.0,36.5355,11111222 
TABS,ioos:station:wmo:42048:1,2013-08-04T08:30:00Z,27.9396,-96.8429,2.0,36.5346,11111222 
TABS,ioos:station:wmo:42048:1,2013-08-04T09:00:00Z,27.9396,-96.8429,2.0,36.5342,11111222 
TABS,ioos:station:wmo:42048:1,2013-08-04T09:30:00Z,27.9396,-96.8429,2.0,36.5344,11111222 
TABS,ioos:station:wmo:42048:1,2013-08-04T10:00:00Z,27.9396,-96.8429,2.0,36.5331,11111222 
TABS,ioos:station:wmo:42048:1,2013-08-04T10:30:00Z,27.9396,-96.8429,2.0,36.5329,11111222 
TABS,ioos:station:wmo:42048:1,2013-08-04T11:00:00Z,27.9396,-96.8429,2.0,36.5313,11111222 
TABS,ioos:station:wmo:42048:1,2013-08-04T11:30:00Z,27.9396,-96.8429,2.0,36.5303,11111222 
TABS,ioos:station:wmo:42048:1,2013-08-04T12:00:00Z,27.9396,-96.8429,2.0,36.5129,11111222 
TABS,ioos:station:wmo:42048:1,2013-08-04T12:30:00Z,27.9396,-96.8429,2.0,36.5122,11111222 
TABS,ioos:station:wmo:42048:1,2013-08-04T13:00:00Z,27.9396,-96.8429,2.0,36.5167,11111222 
TABS,ioos:station:wmo:42048:1,2013-08-04T13:30:00Z,27.9396,-96.8429,2.0,36.5192,11111222 
TABS,ioos:station:wmo:42048:1,2013-08-04T14:00:00Z,27.9396,-96.8429,2.0,36.5207,11111222 
TABS,ioos:station:wmo:42048:1,2013-08-04T14:30:00Z,27.9396,-96.8429,2.0,36.5221,11111222 
TABS,ioos:station:wmo:42048:1,2013-08-04T15:00:00Z,27.9396,-96.8429,2.0,36.5246,11111222 
TABS,ioos:station:wmo:42048:1,2013-08-04T15:30:00Z,27.9396,-96.8429,2.0,36.5251,11111222 
TABS,ioos:station:wmo:42048:1,2013-08-04T16:00:00Z,27.9396,-96.8429,2.0,36.5353,11111222 
TABS,ioos:station:wmo:42048:1,2013-08-04T16:30:00Z,27.9396,-96.8429,2.0,36.5238,11111222 
TABS,ioos:station:wmo:42048:1,2013-08-04T17:00:00Z,27.9396,-96.8429,2.0,36.5364,11111222 
TABS,ioos:station:wmo:42048:1,2013-08-04T17:30:00Z,27.9396,-96.8429,2.0,36.5401,11111222 
TABS,ioos:station:wmo:42048:1,2013-08-04T18:00:00Z,27.9396,-96.8429,2.0,36.529,11111222 
TABS,ioos:station:wmo:42048:1,2013-08-04T18:30:00Z,27.9396,-96.8429,2.0,36.5337,11111222 
TABS,ioos:station:wmo:42048:1,2013-08-04T19:00:00Z,27.9396,-96.8429,2.0,36.526,11111222 
TABS,ioos:station:wmo:42048:1,2013-08-04T19:30:00Z,27.9396,-96.8429,2.0,36.5453,11111222 
TABS,ioos:station:wmo:42048:1,2013-08-04T20:00:00Z,27.9396,-96.8429,2.0,36.5422,11111222 
TABS,ioos:station:wmo:42048:1,2013-08-04T20:30:00Z,27.9396,-96.8429,2.0,36.541,11111222 
TABS,ioos:station:wmo:42048:1,2013-08-04T21:00:00Z,27.9396,-96.8429,2.0,36.5394,11111222 
TABS,ioos:station:wmo:42048:1,2013-08-04T21:30:00Z,27.9396,-96.8429,2.0,36.5425,11111222 
TABS,ioos:station:wmo:42048:1,2013-08-04T22:00:00Z,27.9396,-96.8429,2.0,36.5406,11111222 
TABS,ioos:station:wmo:42048:1,2013-08-04T22:30:00Z,27.9396,-96.8429,2.0,36.5433,11111222 
TABS,ioos:station:wmo:42048:1,2013-08-04T23:00:00Z,27.9396,-96.8429,2.0,36.5412,11111222 
TABS,ioos:station:wmo:42048:1,2013-08-04T23:30:00Z,27.9396,-96.8429,2.0,36.5412,11111222 
TABS,ioos:station:wmo:42048:1,2013-08-05T00:00:00Z,27.9396,-96.8429,2.0,36.5421,11111222 
TABS,ioos:station:wmo:42048:1,2013-08-05T00:30:00Z,27.9396,-96.8429,2.0,36.5429,11111222 
TABS,ioos:station:wmo:42048:1,2013-08-05T01:00:00Z,27.9396,-96.8429,2.0,36.5422,11111222 
TABS,ioos:station:wmo:42048:1,2013-08-05T01:30:00Z,27.9396,-96.8429,2.0,36.5443,11111222 
TABS,ioos:station:wmo:42048:1,2013-08-05T02:00:00Z,27.9396,-96.8429,2.0,36.5447,11111222 
TABS,ioos:station:wmo:42048:1,2013-08-05T02:30:00Z,27.9396,-96.8429,2.0,36.5444,11111222 
TABS,ioos:station:wmo:42048:1,2013-08-05T03:00:00Z,27.9396,-96.8429,2.0,36.5445,11111222 
TABS,ioos:station:wmo:42048:1,2013-08-05T03:30:00Z,27.9396,-96.8429,2.0,36.5451,11111222 
TABS,ioos:station:wmo:42048:1,2013-08-05T04:00:00Z,27.9396,-96.8429,2.0,36.5426,11111222 
TABS,ioos:station:wmo:42048:1,2013-08-05T04:30:00Z,27.9396,-96.8429,2.0,36.5411,11111222 
TABS,ioos:station:wmo:42048:1,2013-08-05T05:00:00Z,27.9396,-96.8429,2.0,36.5397,11111222 
TABS,ioos:station:wmo:42048:1,2013-08-05T05:30:00Z,27.9396,-96.8429,2.0,36.5378,11111222 
TABS,ioos:station:wmo:42048:1,2013-08-05T06:00:00Z,27.9396,-96.8429,2.0,36.5357,11111222 
TABS,ioos:station:wmo:42048:1,2013-08-05T06:30:00Z,27.9396,-96.8429,2.0,36.5319,11111222 
TABS,ioos:station:wmo:42048:1,2013-08-05T07:00:00Z,27.9396,-96.8429,2.0,36.5296,11111222 
TABS,ioos:station:wmo:42048:1,2013-08-05T07:30:00Z,27.9396,-96.8429,2.0,36.5247,11111222 
TABS,ioos:station:wmo:42048:1,2013-08-05T08:00:00Z,27.9396,-96.8429,2.0,36.523,11111222 
TABS,ioos:station:wmo:42048:1,2013-08-05T08:30:00Z,27.9396,-96.8429,2.0,36.5205,11111222 
TABS,ioos:station:wmo:42048:1,2013-08-05T09:00:00Z,27.9396,-96.8429,2.0,36.5197,11111222 
TABS,ioos:station:wmo:42048:1,2013-08-05T09:30:00Z,27.9396,-96.8429,2.0,36.5206,11111222 
TABS,ioos:station:wmo:42048:1,2013-08-05T10:00:00Z,27.9396,-96.8429,2.0,36.5188,11111222 
TABS,ioos:station:wmo:42048:1,2013-08-05T10:30:00Z,27.9396,-96.8429,2.0,36.5193,11111222 
TABS,ioos:station:wmo:42048:1,2013-08-05T11:00:00Z,27.9396,-96.8429,2.0,36.5189,11111222 
TABS,ioos:station:wmo:42048:1,2013-08-05T11:30:00Z,27.9396,-96.8429,2.0,36.5204,11111222 
TABS,ioos:station:wmo:42048:1,2013-08-05T12:00:00Z,27.9396,-96.8429,2.0,36.5159,11111222 
TABS,ioos:station:wmo:42048:1,2013-08-05T12:30:00Z,27.9396,-96.8429,2.0,36.5096,11111222 
TABS,ioos:station:wmo:42048:1,2013-08-05T13:00:00Z,27.9396,-96.8429,2.0,36.5065,11111222 
TABS,ioos:station:wmo:42048:1,2013-08-05T13:30:00Z,27.9396,-96.8429,2.0,36.5045,11111222 
TABS,ioos:station:wmo:42048:1,2013-08-05T14:00:00Z,27.9396,-96.8429,2.0,36.5013,11111222 
TABS,ioos:station:wmo:42048:1,2013-08-05T14:30:00Z,27.9396,-96.8429,2.0,36.4984,11111222 
TABS,ioos:station:wmo:42048:1,2013-08-05T15:00:00Z,27.9396,-96.8429,2.0,36.5028,11111222 
TABS,ioos:station:wmo:42048:1,2013-08-05T15:30:00Z,27.9396,-96.8429,2.0,36.4996,11111222 
TABS,ioos:station:wmo:42048:1,2013-08-05T16:00:00Z,27.9396,-96.8429,2.0,36.4967,11111222 
TABS,ioos:station:wmo:42048:1,2013-08-05T16:30:00Z,27.9396,-96.8429,2.0,36.5023,11111222 
TABS,ioos:station:wmo:42048:1,2013-08-05T17:00:00Z,27.9396,-96.8429,2.0,36.4966,11111222 
TABS,ioos:station:wmo:42048:1,2013-08-05T17:30:00Z,27.9396,-96.8429,2.0,36.4958,11111222 
TABS,ioos:station:wmo:42048:1,2013-08-05T18:00:00Z,27.9396,-96.8429,2.0,36.5019,11111222 
TABS,ioos:station:wmo:42048:1,2013-08-05T18:30:00Z,27.9396,-96.8429,2.0,36.5067,11111222 
TABS,ioos:station:wmo:42048:1,2013-08-05T19:00:00Z,27.9396,-96.8429,2.0,36.5141,11111222 
TABS,ioos:station:wmo:42048:1,2013-08-05T19:30:00Z,27.9396,-96.8429,2.0,36.5177,11111222 
TABS,ioos:station:wmo:42048:1,2013-08-05T20:00:00Z,27.9396,-96.8429,2.0,36.5227,11111222 
TABS,ioos:station:wmo:42048:1,2013-08-05T20:30:00Z,27.9396,-96.8429,2.0,36.5298,11111222 
TABS,ioos:station:wmo:42048:1,2013-08-05T21:00:00Z,27.9396,-96.8429,2.0,36.5259,11111222 
TABS,ioos:station:wmo:42048:1,2013-08-05T21:30:00Z,27.9396,-96.8429,2.0,36.5309,11111222 
TABS,ioos:station:wmo:42048:1,2013-08-05T22:00:00Z,27.9396,-96.8429,2.0,36.5303,11111222 
TABS,ioos:station:wmo:42048:1,2013-08-05T22:30:00Z,27.9396,-96.8429,2.0,36.5337,11111222 
TABS,ioos:station:wmo:42048:1,2013-08-05T23:00:00Z,27.9396,-96.8429,2.0,36.5359,11111222 
TABS,ioos:station:wmo:42048:1,2013-08-05T23:30:00Z,27.9396,-96.8429,2.0,36.5388,11111222 
TABS,ioos:station:wmo:42048:1,2013-08-06T00:00:00Z,27.9396,-96.8429,2.0,36.5365,11111222 
TABS,ioos:station:wmo:42048:1,2013-08-06T00:30:00Z,27.9396,-96.8429,2.0,36.5369,11111222 
TABS,ioos:station:wmo:42048:1,2013-08-06T01:00:00Z,27.9396,-96.8429,2.0,36.5318,11111222 
TABS,ioos:station:wmo:42048:1,2013-08-06T01:30:00Z,27.9396,-96.8429,2.0,36.5291,11111222 
TABS,ioos:station:wmo:42048:1,2013-08-06T02:00:00Z,27.9396,-96.8429,2.0,36.5287,11111222 
TABS,ioos:station:wmo:42048:1,2013-08-06T02:30:00Z,27.9396,-96.8429,2.0,36.5237,11111222 
TABS,ioos:station:wmo:42048:1,2013-08-06T03:00:00Z,27.9396,-96.8429,2.0,36.5195,11111222 
TABS,ioos:station:wmo:42048:1,2013-08-06T03:30:00Z,27.9396,-96.8429,2.0,36.5138,11111222 
TABS,ioos:station:wmo:42048:1,2013-08-06T04:00:00Z,27.9396,-96.8429,2.0,36.5081,11111222 
TABS,ioos:station:wmo:42048:1,2013-08-06T04:30:00Z,27.9396,-96.8429,2.0,36.5047,11111222 
TABS,ioos:station:wmo:42048:1,2013-08-06T05:00:00Z,27.9396,-96.8429,2.0,36.5022,11111222 
TABS,ioos:station:wmo:42048:1,2013-08-06T05:30:00Z,27.9396,-96.8429,2.0,36.5015,11111222 
TABS,ioos:station:wmo:42048:1,2013-08-06T06:00:00Z,27.9396,-96.8429,2.0,36.4991,11111222 
TABS,ioos:station:wmo:42048:1,2013-08-06T06:30:00Z,27.9396,-96.8429,2.0,36.5011,11111222 
TABS,ioos:station:wmo:42048:1,2013-08-06T07:00:00Z,27.9396,-96.8429,2.0,36.4966,11111222 
TABS,ioos:station:wmo:42048:1,2013-08-06T07:30:00Z,27.9396,-96.8429,2.0,36.4961,11111222 
TABS,ioos:station:wmo:42048:1,2013-08-06T08:00:00Z,27.9396,-96.8429,2.0,36.4955,11111222 
TABS,ioos:station:wmo:42048:1,2013-08-06T08:30:00Z,27.9396,-96.8429,2.0,36.4958,11111222 
TABS,ioos:station:wmo:42048:1,2013-08-06T09:00:00Z,27.9396,-96.8429,2.0,36.4963,11111222 
TABS,ioos:station:wmo:42048:1,2013-08-06T09:30:00Z,27.9396,-96.8429,2.0,36.4954,11111222 
TABS,ioos:station:wmo:42048:1,2013-08-06T10:00:00Z,27.9396,-96.8429,2.0,36.4963,11111222 
TABS,ioos:station:wmo:42048:1,2013-08-06T10:30:00Z,27.9396,-96.8429,2.0,36.4946,11111222 
TABS,ioos:station:wmo:42048:1,2013-08-06T11:00:00Z,27.9396,-96.8429,2.0,36.4929,11111222 
TABS,ioos:station:wmo:42048:1,2013-08-06T11:30:00Z,27.9396,-96.8429,2.0,36.4938,11111222 
TABS,ioos:station:wmo:42048:1,2013-08-06T12:00:00Z,27.9396,-96.8429,2.0,36.4939,11111222 
TABS,ioos:station:wmo:42048:1,2013-08-06T12:30:00Z,27.9396,-96.8429,2.0,36.4938,11111222 
TABS,ioos:station:wmo:42048:1,2013-08-06T13:00:00Z,27.9396,-96.8429,2.0,36.4929,11111222 
TABS,ioos:station:wmo:42048:1,2013-08-06T13:30:00Z,27.9396,-96.8429,2.0,36.4948,11111222 
TABS,ioos:station:wmo:42048:1,2013-08-06T14:00:00Z,27.9396,-96.8429,2.0,36.4932,11111222 
TABS,ioos:station:wmo:42048:1,2013-08-06T14:30:00Z,27.9396,-96.8429,2.0,36.4935,11111222 
TABS,ioos:station:wmo:42048:1,2013-08-06T15:00:00Z,27.9396,-96.8429,2.0,36.4959,11111222 
TABS,ioos:station:wmo:42048:1,2013-08-06T15:30:00Z,27.9396,-96.8429,2.0,36.4998,11111222 
TABS,ioos:station:wmo:42048:1,2013-08-06T16:00:00Z,27.9396,-96.8429,2.0,36.5032,11111222 
TABS,ioos:station:wmo:42048:1,2013-08-06T16:30:00Z,27.9396,-96.8429,2.0,36.4971,11111222 